PACCTY-2 Weather Reports


Display with metric or nautical units.
time (UTC)temp
F
wind
direction
speed
MPH
gust
MPH
rain 1hr
in
rain 24hr
in
rain mn
in
humidity
%
barometer
mb
20260505052645 55 212 7.0 13.0 0.00 0.00 0.00
20260505052145 55 232 8.0 13.0 0.00 0.00 0.00
20260505051642 55 232 8.0 13.0 0.00 0.00 0.00
20260505051141 55 240 10.0 15.0 0.00 0.00 0.00
20260505041630 56 245 8.0 10.0 0.00 0.00 0.00
20260505041130 56 235 5.0 10.0 0.00 0.00 0.00
20260505040127 56 239 7.0 13.0 0.00 0.00 0.00
20260505035125 56 242 8.0 12.0 0.00 0.00 0.00
20260505031618 56 210 9.0 12.0 0.00 0.00 0.00
20260505031118 56 225 8.0 12.0 0.00 0.00 0.00
20260505030616 56 225 8.0 12.0 0.00 0.00 0.00
20260505025616 56 239 7.0 15.0 0.00 0.00 0.00
20260505025114 56 229 9.0 15.0 0.00 0.00 0.00
20260505024612 56 226 11.0 14.0 0.00 0.00 0.00
20260505023109 57 221 9.0 13.0 0.00 0.00 0.00
20260505022608 57 232 9.0 15.0 0.00 0.00 0.00
20260505021606 57 233 10.0 15.0 0.00 0.00 0.00
20260505021105 57 224 9.0 14.0 0.00 0.00 0.00
20260505020604 57 240 9.0 12.0 0.00 0.00 0.00
20260505015602 57 245 8.0 18.0 0.00 0.00 0.00
20260505015101 57 233 11.0 18.0 0.00 0.00 0.00
20260505014059 57 257 14.0 20.0 0.00 0.00 0.00
20260505013559 57 249 15.0 20.0 0.00 0.00 0.00
20260505011053 60 249 13.0 20.0 0.00 0.00 0.00
20260505010052 60 239 15.0 18.0 0.00 0.00 0.00
20260505005050 60 231 13.0 19.0 0.00 0.00 0.00
20260505004048 60 246 13.0 19.0 0.00 0.00 0.00
20260505001542 60 240 16.0 23.0 0.00 0.00 0.00
20260505000540 60 238 16.0 23.0 0.00 0.00 0.00
20260504235037 60 246 16.0 23.0 0.00 0.00 0.00
20260504233034 60 250 17.0 25.0 0.00 0.00 0.00
20260504225025 61 253 15.0 22.0 0.00 0.00 0.00
20260504223522 61 236 16.0 22.0 0.00 0.00 0.00
20260504221518 61 247 14.0 21.0 0.00 0.00 0.00
20260504220016 61 252 14.0 20.0 0.00 0.00 0.00
20260504215013 61 247 15.0 22.0 0.00 0.00 0.00
20260504214512 61 238 13.0 22.0 0.00 0.00 0.00
20260504214012 61 243 14.0 21.0 0.00 0.00 0.00
20260504212508 60 254 14.0 20.0 0.00 0.00 0.00
20260504212007 60 243 14.0 20.0 0.00 0.00 0.00
20260504211507 60 246 15.0 20.0 0.00 0.00 0.00
20260504211004 60 242 15.0 20.0 0.00 0.00 0.00
20260504210504 60 242 13.0 19.0 0.00 0.00 0.00
20260504205504 60 245 14.0 17.0 0.00 0.00 0.00
20260504203459 60 243 13.0 17.0 0.00 0.00 0.00
20260504202958 60 252 13.0 19.0 0.00 0.00 0.00
20260504201453 59 242 14.0 19.0 0.00 0.00 0.00
20260504195953 59 242 13.0 19.0 0.00 0.00 0.00
20260504194950 58 245 11.0 19.0 0.00 0.00 0.00
20260504194448 58 246 15.0 18.0 0.00 0.00 0.00
20260504193948 58 257 15.0 19.0 0.00 0.00 0.00
20260504193446 58 238 12.0 19.0 0.00 0.00 0.00
20260504192944 58 239 14.0 19.0 0.00 0.00 0.00
20260504192444 58 242 15.0 23.0 0.00 0.00 0.00
20260504191942 58 250 12.0 23.0 0.00 0.00 0.00
20260504191441 58 226 9.0 23.0 0.00 0.00 0.00
20260504190439 57 243 19.0 23.0 0.00 0.00 0.00
20260504185437 57 236 13.0 19.0 0.00 0.00 0.00
20260504184938 57 247 12.0 19.0 0.00 0.00 0.00
20260504182932 57 235 18.0 21.0 0.00 0.00 0.00
20260504182432 57 243 14.0 21.0 0.00 0.00 0.00
20260504181430 56 239 12.0 20.0 0.00 0.00 0.00
20260504180928 56 235 13.0 20.0 0.00 0.00 0.00
20260504180427 56 233 11.0 19.0 0.00 0.00 0.00
20260504175427 56 240 13.0 21.0 0.00 0.00 0.00
20260504174925 56 190 15.0 21.0 0.00 0.00 0.00
20260504174423 56 238 15.0 21.0 0.00 0.00 0.00
20260504173923 56 236 15.0 21.0 0.00 0.00 0.00
20260504173421 56 238 11.0 21.0 0.00 0.00 0.00
20260504172920 56 243 10.0 21.0 0.00 0.00 0.00
20260504172420 56 242 13.0 20.0 0.00 0.00 0.00
20260504171418 56 200 15.0 22.0 0.00 0.00 0.00
20260504170415 56 239 10.0 19.0 0.00 0.00 0.00
20260504160403 55 242 10.0 17.0 0.00 0.00 0.00
20260504150853 55 231 11.0 15.0 0.00 0.00 0.00
20260504140841 54 229 4.0 16.0 0.00 0.00 0.00
20260504120316 53 228 9.0 19.0 0.00 0.01 0.00
20260504100252 53 218 13.0 20.0 0.00 0.01 0.00
20260504081231 53 250 13.0 22.0 0.00 0.01 0.00